Location: Columbia
(38.9520°N, 92.3340°W)
Time: 03:03:57
(UTC-05:00)

Cosmos 1633 - Visible Passes

Search period start: 23 July 2014 00:00
Search period end: 02 August 2014 00:00
Orbit: 498 x 520 km, 82.5° (Epoch: 22 July)

Date Brightness Start Highest point End Pass type
(mag) Time Alt. Az. Time Alt. Az. Time Alt. Az.
23 Jul 5.1 01:32:02 21° NNW 01:32:02 21° NNW 01:33:29 10° N visible
24 Jul 5.2 01:15:03 21° N 01:15:03 21° N 01:16:27 10° N visible
25 Jul 5.2 00:58:04 21° N 00:58:04 21° N 00:59:23 10° N visible
26 Jul 5.2 00:41:04 19° NNE 00:41:04 19° NNE 00:42:15 10° NNE visible
27 Jul 5.3 00:24:03 17° NNE 00:24:03 17° NNE 00:25:05 10° NNE visible
28 Jul 5.3 00:07:01 15° NNE 00:07:01 15° NNE 00:07:52 10° NNE visible
28 Jul 5.8 01:41:53 10° NW 01:41:53 10° NW 01:41:54 10° NW visible
28 Jul 5.4 23:49:59 13° NE 23:49:59 13° NE 23:50:34 10° NNE visible
29 Jul 5.7 01:24:51 12° NW 01:24:51 12° NW 01:25:24 10° NNW visible
29 Jul 5.5 23:32:56 11° NE 23:32:56 11° NE 23:33:12 10° NE visible
30 Jul 5.6 01:07:47 14° NW 01:07:47 14° NW 01:08:41 10° NNW visible
31 Jul 5.5 00:50:44 17° NNW 00:50:44 17° NNW 00:51:51 10° NNW visible
01 Aug 5.4 00:33:39 19° NNW 00:33:39 19° NNW 00:34:56 10° N visible
